Time,TemperatureF,DewpointF,PressureIn,WindDirection,WindDirectionDegrees,WindSpeedMPH,WindSpeedGustMPH,Humidity,HourlyPrecipIn,Conditions,Clouds,dailyrainin,SoftwareType,DateUTC
2014-09-01 00:04:00,60.5,54.4,29.99,NE,45,0.4,1.1,80,0.00,,,0.00,WUHU216HW,2014-09-01 07:04:00,
2014-09-01 00:09:00,60.5,54.4,29.99,NE,45,0.4,1.1,80,0.00,,,0.00,WUHU216HW,2014-09-01 07:09:00,
2014-09-01 00:14:00,60.5,54.4,29.99,ENE,68,0.9,1.8,80,0.00,,,0.00,WUHU216HW,2014-09-01 07:14:00,
2014-09-01 00:19:00,60.5,54.4,29.99,NE,45,0.2,1.8,80,0.00,,,0.00,WUHU216HW,2014-09-01 07:19:00,
2014-09-01 00:24:00,60.5,54.4,29.99,NE,45,0.4,1.1,80,0.00,,,0.00,WUHU216HW,2014-09-01 07:24:00,
2014-09-01 00:29:00,60.5,54.7,29.99,NE,45,0.2,0.9,81,0.00,,,0.00,WUHU216HW,2014-09-01 07:29:00,
2014-09-01 00:34:00,60.5,54.7,29.99,NE,45,0.0,0.9,81,0.00,,,0.00,WUHU216HW,2014-09-01 07:34:00,
2014-09-01 00:39:00,60.5,54.7,30.00,NNE,23,0.7,1.6,81,0.00,,,0.00,WUHU216HW,2014-09-01 07:39:00,
2014-09-01 00:44:00,60.5,54.7,30.00,NNE,23,0.4,1.6,81,0.00,,,0.00,WUHU216HW,2014-09-01 07:44:00,
2014-09-01 00:49:00,60.3,54.6,30.00,NNE,23,1.1,1.3,81,0.00,,,0.00,WUHU216HW,2014-09-01 07:49:00,
2014-09-01 00:54:00,60.1,54.4,30.00,NNE,23,1.8,1.8,81,0.00,,,0.00,WUHU216HW,2014-09-01 07:54:00,
2014-09-01 00:59:00,60.1,54.4,30.00,NNE,23,1.1,1.8,81,0.00,,,0.00,WUHU216HW,2014-09-01 07:59:00,
2014-09-01 01:04:00,59.9,54.2,30.00,NNE,23,0.9,1.8,81,0.00,,,0.00,WUHU216HW,2014-09-01 08:04:00,
2014-09-01 01:09:00,59.8,54.3,30.00,NNE,23,0.2,1.1,82,0.00,,,0.00,WUHU216HW,2014-09-01 08:09:00,
2014-09-01 01:14:00,59.8,54.3,30.00,NNE,23,0.0,0.2,82,0.00,,,0.00,WUHU216HW,2014-09-01 08:14:00,
2014-09-01 01:19:00,59.8,54.3,30.00,NNE,23,0.0,0.0,82,0.00,,,0.00,WUHU216HW,2014-09-01 08:19:00,
2014-09-01 01:24:00,59.8,54.3,30.00,NNE,23,0.0,0.0,82,0.00,,,0.00,WUHU216HW,2014-09-01 08:24:00,
2014-09-01 01:29:00,59.9,54.5,30.00,NNE,23,0.0,0.0,82,0.00,,,0.00,WUHU216HW,2014-09-01 08:29:00,
2014-09-01 01:34:00,59.9,54.5,30.00,NNE,23,0.0,0.0,82,0.00,,,0.00,WUHU216HW,2014-09-01 08:34:00,
2014-09-01 01:39:00,60.1,54.6,30.00,NNE,23,0.0,0.0,82,0.00,,,0.00,WUHU216HW,2014-09-01 08:39:00,
2014-09-01 01:44:00,60.1,54.6,30.00,NNE,23,0.0,0.0,82,0.00,,,0.00,WUHU216HW,2014-09-01 08:44:00,
2014-09-01 01:49:00,60.1,54.6,30.00,NNE,23,0.0,0.0,82,0.00,,,0.00,WUHU216HW,2014-09-01 08:49:00,
2014-09-01 01:54:00,60.1,54.6,30.00,NNE,23,0.0,0.0,82,0.00,,,0.00,WUHU216HW,2014-09-01 08:54:00,
2014-09-01 01:59:00,60.1,54.6,30.00,NNE,23,0.4,0.4,82,0.00,,,0.00,WUHU216HW,2014-09-01 08:59:00,
2014-09-01 02:04:00,60.1,55.0,30.00,NNE,23,0.2,0.4,83,0.00,,,0.00,WUHU216HW,2014-09-01 09:04:00,
2014-09-01 02:09:00,60.1,54.6,30.00,East,90,0.0,0.2,82,0.00,,,0.00,WUHU216HW,2014-09-01 09:09:00,
2014-09-01 02:14:00,60.1,54.6,30.00,East,90,0.0,0.2,82,0.00,,,0.00,WUHU216HW,2014-09-01 09:14:00,
2014-09-01 02:19:00,59.9,54.5,30.00,East,90,0.0,0.0,82,0.00,,,0.00,WUHU216HW,2014-09-01 09:19:00,
2014-09-01 02:24:00,59.9,54.5,29.99,East,90,0.0,0.0,82,0.00,,,0.00,WUHU216HW,2014-09-01 09:24:00,
2014-09-01 02:29:00,59.9,54.5,29.99,East,90,0.0,0.0,82,0.00,,,0.00,WUHU216HW,2014-09-01 09:29:00,
2014-09-01 02:34:00,59.9,54.5,30.00,East,90,0.0,0.0,82,0.00,,,0.00,WUHU216HW,2014-09-01 09:34:00,
2014-09-01 02:39:00,59.9,54.5,29.99,East,90,0.0,0.0,82,0.00,,,0.00,WUHU216HW,2014-09-01 09:39:00,
2014-09-01 02:44:00,59.9,54.5,29.99,East,90,0.0,0.0,82,0.00,,,0.00,WUHU216HW,2014-09-01 09:44:00,
2014-09-01 02:49:00,59.8,54.3,30.00,East,90,0.0,0.0,82,0.00,,,0.00,WUHU216HW,2014-09-01 09:49:00,
2014-09-01 02:54:00,59.8,54.3,30.00,East,90,0.0,0.0,82,0.00,,,0.00,WUHU216HW,2014-09-01 09:54:00,
2014-09-01 02:59:00,59.8,54.3,30.00,East,90,0.0,0.0,82,0.00,,,0.00,WUHU216HW,2014-09-01 09:59:00,
2014-09-01 03:04:00,59.8,54.3,30.00,East,90,0.0,0.0,82,0.00,,,0.00,WUHU216HW,2014-09-01 10:04:00,
2014-09-01 03:09:00,59.8,54.3,29.99,East,90,0.0,0.0,82,0.00,,,0.00,WUHU216HW,2014-09-01 10:09:00,
2014-09-01 03:14:00,59.8,54.3,30.00,East,90,0.0,0.0,82,0.00,,,0.00,WUHU216HW,2014-09-01 10:14:00,
2014-09-01 03:19:00,59.6,54.1,30.00,East,90,0.0,0.0,82,0.00,,,0.00,WUHU216HW,2014-09-01 10:19:00,
2014-09-01 03:24:00,59.6,54.1,30.00,East,90,0.0,0.0,82,0.00,,,0.00,WUHU216HW,2014-09-01 10:24:00,
2014-09-01 03:29:00,59.6,54.1,30.00,East,90,0.2,0.2,82,0.00,,,0.00,WUHU216HW,2014-09-01 10:29:00,
2014-09-01 03:34:00,59.6,54.5,30.00,SE,135,1.3,1.3,83,0.00,,,0.00,WUHU216HW,2014-09-01 10:34:00,
2014-09-01 03:39:00,59.6,54.5,30.00,SSE,158,0.0,1.3,83,0.00,,,0.00,WUHU216HW,2014-09-01 10:39:00,
2014-09-01 03:44:00,59.6,54.5,30.00,SW,225,1.8,1.8,83,0.00,,,0.00,WUHU216HW,2014-09-01 10:44:00,
2014-09-01 03:49:00,59.8,54.6,30.00,SW,225,0.0,1.8,83,0.00,,,0.00,WUHU216HW,2014-09-01 10:49:00,
2014-09-01 03:54:00,59.8,54.6,30.00,SW,225,0.0,0.7,83,0.00,,,0.00,WUHU216HW,2014-09-01 10:54:00,
2014-09-01 03:59:00,59.6,54.5,30.00,SW,225,0.0,0.2,83,0.00,,,0.00,WUHU216HW,2014-09-01 10:59:00,
2014-09-01 04:04:00,59.8,54.6,30.00,SW,225,0.0,0.2,83,0.00,,,0.00,WUHU216HW,2014-09-01 11:04:00,
2014-09-01 04:09:00,59.8,54.6,30.00,SW,225,0.0,0.0,83,0.00,,,0.00,WUHU216HW,2014-09-01 11:09:00,
2014-09-01 04:14:00,59.8,54.6,30.00,SW,225,0.2,1.1,83,0.00,,,0.00,WUHU216HW,2014-09-01 11:14:00,
2014-09-01 04:19:00,59.8,54.6,30.00,SW,225,2.7,2.7,83,0.00,,,0.00,WUHU216HW,2014-09-01 11:19:00,
2014-09-01 04:24:00,59.8,54.9,30.00,SW,225,1.3,2.7,84,0.00,,,0.00,WUHU216HW,2014-09-01 11:24:00,
2014-09-01 04:29:00,59.8,54.6,30.00,SSW,203,1.6,2.5,83,0.00,,,0.00,WUHU216HW,2014-09-01 11:29:00,
2014-09-01 04:34:00,59.8,54.9,30.00,SSW,203,1.1,1.6,84,0.00,,,0.00,WUHU216HW,2014-09-01 11:34:00,
2014-09-01 04:39:00,59.8,54.6,30.00,SSW,203,0.2,1.1,83,0.00,,,0.00,WUHU216HW,2014-09-01 11:39:00,
2014-09-01 04:44:00,59.8,54.6,30.00,SSW,203,0.0,1.1,83,0.00,,,0.00,WUHU216HW,2014-09-01 11:44:00,
2014-09-01 04:49:00,59.8,54.6,30.00,SW,225,1.1,1.1,83,0.00,,,0.00,WUHU216HW,2014-09-01 11:49:00,
2014-09-01 04:54:00,59.8,54.6,30.00,SW,225,0.0,1.1,83,0.00,,,0.00,WUHU216HW,2014-09-01 11:54:00,
2014-09-01 04:59:00,59.9,54.8,30.00,SW,225,0.0,1.1,83,0.00,,,0.00,WUHU216HW,2014-09-01 11:59:00,
2014-09-01 05:04:00,59.8,54.6,30.00,SSW,203,0.0,1.8,83,0.00,,,0.00,WUHU216HW,2014-09-01 12:04:00,
2014-09-01 05:09:00,59.9,54.8,30.00,SSW,203,1.1,1.8,83,0.00,,,0.00,WUHU216HW,2014-09-01 12:09:00,
2014-09-01 05:14:00,59.9,54.8,30.00,SSW,203,0.4,2.2,83,0.00,,,0.00,WUHU216HW,2014-09-01 12:14:00,
2014-09-01 05:19:00,59.9,54.8,30.00,WSW,248,0.4,2.2,83,0.00,,,0.00,WUHU216HW,2014-09-01 12:19:00,
2014-09-01 05:24:00,59.9,54.8,30.00,South,180,0.0,3.6,83,0.00,,,0.00,WUHU216HW,2014-09-01 12:24:00,
2014-09-01 05:29:00,59.9,54.8,30.00,SW,225,1.8,3.6,83,0.00,,,0.00,WUHU216HW,2014-09-01 12:29:00,
2014-09-01 05:34:00,60.1,55.0,30.00,SW,225,0.0,1.8,83,0.00,,,0.00,WUHU216HW,2014-09-01 12:34:00,